Weather History for KMCW - April, 2014

Change the Weather History Date:

Tuesday, April 1, 2014

  Actual Average Record
Temperature  
Mean Temperature 31 °F 40 °F  
Max Temperature 41 °F 51 °F 86 °F (2010)
Min Temperature 20 °F 29 °F 7 °F (1924)
Degree Days  
Heating Degree Days 34 25  
Month to date heating degree days 34 25  
Since 1 July heating degree days 7774 6870  
Cooling Degree Days 0 0  
Month to date cooling degree days 0 0  
Year to date cooling degree days 0 0  
Moisture  
Dew Point 22 °F    
Average Humidity 76    
Maximum Humidity 92    
Minimum Humidity 59    
Precipitation  
Precipitation T in 0.10 in 0.71 in (1927)
Month to date precipitation T 0.10  
Year to date precipitation 4.23 4.15  
Snow  
Snow 0.00 in 0.20 in 6.00 in (1927)
Since 1 July snowfall 52.9 38.7  
Snow Depth 0.00 in    
Sea Level Pressure  
Sea Level Pressure 29.95 in    
Wind  
Wind Speed 19 mph (WNW)    
Max Wind Speed 37 mph    
Max Gust Speed 44 mph    
Visibility 10 miles    
Events Snow    
T = Trace of Precipitation, MM = Missing Value Source: NWS Daily Summary

Daily Weather History Graph

Daily Weather History Graph

Search for Another Location

Airport or City:

Trip Planner

Search our weather history database for the weather conditions in past years. The results will help you decide how hot, cold, wet, or windy it might be!

Date:

Astronomy

Apr. 01, 2014 Rise Set
Actual Time 6:55 AM CDT 7:39 PM CDT
Civil Twilight 6:26 AM CDT 8:08 PM CDT
Nautical Twilight 5:52 AM CDT 8:42 PM CDT
Astronomical Twilight 5:17 AM CDT 9:18 PM CDT
Moon 7:55 AM CDT (4/1) 10:07 PM CDT (4/1)
Length of Visible Light 13h 42m
Length of Day
12h 44m
Waxing Crescent, 5% of the Moon is Illuminated
Apr 1
Waxing Crescent
Apr 7
First Quarter
Apr 15
Full
Apr 22
Last Quarter
Apr 29
New

Hourly Weather History & Observations

Time (CDT) Temp. Windchill Dew Point Humidity Pressure Visibility Wind Dir Wind Speed Gust Speed Precip Events Conditions
12:53 AM 24.1 °F 7.7 °F 16.0 °F 71% 29.66 in 10.0 mi WSW 26.5 mph 39.1 mph N/A   Overcast
1:53 AM 23.0 °F 6.0 °F 17.1 °F 78% 29.68 in 10.0 mi West 27.6 mph 38.0 mph N/A   Overcast
2:53 AM 23.0 °F 5.7 °F 18.0 °F 81% 29.69 in 10.0 mi West 28.8 mph 36.8 mph N/A   Overcast
3:53 AM 21.9 °F 3.7 °F 16.0 °F 78% 29.70 in 10.0 mi West 31.1 mph 42.6 mph N/A   Overcast
4:53 AM 21.0 °F 3.0 °F 15.1 °F 78% 29.74 in 10.0 mi West 28.8 mph 42.6 mph 0.00 in   Overcast
5:53 AM 21.0 °F 3.0 °F 15.1 °F 78% 29.80 in 9.0 mi WNW 28.8 mph 42.6 mph 0.00 in Snow Light Snow
6:53 AM 19.9 °F 1.0 °F 14.0 °F 78% 29.84 in 9.0 mi WNW 31.1 mph 40.3 mph 0.00 in Snow Light Snow
7:53 AM 21.0 °F 2.7 °F 14.0 °F 74% 29.89 in 7.0 mi WNW 29.9 mph 36.8 mph 0.00 in Snow Light Snow
8:53 AM 21.9 °F 5.1 °F 14.0 °F 72% 29.91 in 10.0 mi WNW 25.3 mph 38.0 mph 0.00 in   Overcast
9:53 AM 26.1 °F 9.8 °F 17.1 °F 69% 29.96 in 10.0 mi WNW 28.8 mph 36.8 mph N/A   Mostly Cloudy
10:03 AM 26.1 °F 9.8 °F 17.1 °F 69% 29.93 in 10.0 mi WNW 28.8 mph 33.4 mph N/A   Scattered Clouds
10:53 AM 30.0 °F 16.3 °F 19.0 °F 64% 29.98 in 10.0 mi WNW 24.2 mph 33.4 mph N/A   Partly Cloudy
11:53 AM 32.0 °F 20.1 °F 21.0 °F 64% 29.99 in 10.0 mi WNW 19.6 mph - N/A   Clear
12:53 PM 35.1 °F 23.3 °F 24.1 °F 64% 30.03 in 10.0 mi West 23.0 mph 27.6 mph N/A   Partly Cloudy
1:53 PM 37.0 °F 27.4 °F 25.0 °F 62% 30.03 in 10.0 mi WNW 17.3 mph - N/A   Partly Cloudy
2:53 PM 39.9 °F 31.1 °F 27.0 °F 60% 30.01 in 10.0 mi NW 17.3 mph - N/A   Clear
3:53 PM 41.0 °F 32.8 °F 28.9 °F 62% 30.03 in 10.0 mi WNW 16.1 mph - N/A   Clear
4:53 PM 39.0 °F 31.0 °F 28.0 °F 65% 30.04 in 10.0 mi WNW 13.8 mph - N/A   Clear
5:53 PM 37.9 °F 30.5 °F 28.9 °F 70% 30.06 in 10.0 mi WNW 11.5 mph - N/A   Clear
6:53 PM 36.0 °F 29.6 °F 30.0 °F 79% 30.10 in 10.0 mi NW 8.1 mph - N/A   Clear
7:53 PM 34.0 °F 26.6 °F 28.0 °F 79% 30.11 in 10.0 mi NW 9.2 mph - N/A   Partly Cloudy
8:53 PM 33.1 °F 26.1 °F 28.9 °F 85% 30.12 in 10.0 mi NNW 8.1 mph - N/A   Mostly Cloudy
9:53 PM 32.0 °F 24.8 °F 28.0 °F 85% 30.13 in 10.0 mi NW 8.1 mph - N/A   Scattered Clouds
10:53 PM 28.9 °F 20.4 °F 26.1 °F 89% 30.12 in 10.0 mi North 9.2 mph - N/A   Partly Cloudy
11:53 PM 28.9 °F 21.1 °F 26.1 °F 89% 30.12 in 8.0 mi North 8.1 mph - N/A   Clear